Location: ????????
(55.4717°N, 39.1821°E)
Time: 09:29:05
(UTC+00:00)

Cosmos 2333 Rocket - Pass Details

Date: 14 April 2024
Orbit: 839 x 862 km, 70.8° (Epoch: 20 May)

Event Time Altitude Azimuth Distance (km) Brightness Sun altitude
Exits shadow 00:04:52 26° 241° (WSW) 1,609 3.1 -16.9°
Maximum altitude 00:08:00 58° 311° (NW) 979 2.5 -16.6°
Drops below altitude 10° 00:13:36 10° 31° (NNE) 2,469 5.9 -16.0°
Sets 00:16:06 0° 36° (NE) 3,408 7.1 -15.8°
